EHGG

Eelde Airport

Airport
ICAO code
EHGG
IATA Code
GRQ
Summary
ICAO Region
EUR
ICAO Territory
Location

Eelde, Drenthe

Serving
Groningen
Elevation
17 ft
Coordinates
53° 7' 11" N , 6° 34' 46" E
KCC
Metar
Observation
EHGG 061555Z AUTO 08005KT 9999 NCD 06/02 Q1040 NOSIG
Station
Groningen Airport Eelde
Date/Time
2023-02-06 15:55:00
Wind direction
80°
Wind speed
05 kts
Lowest cloud amount
no clouds detected
Temperature
6°C
Dew point
2°C
Humidity
75%
QNH
1040 hPa
Weather condition
n/a

Groningen Airport Eelde is a civilian airport near Eelde, a town in the province of Drenthe in the Netherlands. It is located 4.8 nm south of the city of Groningen.

Climatology

Temperate Marine climate/Oceanic climate (Köppen climate classification Cfb). Moderately cool summer and comparatively warm winter with a temperature range of only 14°C. Prevailing south-westerly winds from the Atlantic Ocean.

Runways

Designator Length Width Surface Rops
1/19 1500 45 ASP No/No
5/23 1800 45 ASP No/No

Airport map

Aerial View

SKYbrary Partners:

Safety knowledge contributed by: